Lid_Strength_Index
8 11 13 11 11 10 11 13 13 12 10 11 11 11 10 9 9 10 9 9 9 8 7 6 6 6 3 3 3 2 3 2 3 5 6 7 8 8 7 7 6 5 5 6
10 12 9 9 9 11 11 13 13 11 10 11 12 12 10 9 9 9 8 9 8 8 7 7 7 6 4 3 3 3 3 2 3 4 5 6 8 9 9 8 8 8 7 8
11 10 8 9 10 11 12 13 13 13 11 11 13 14 12 10 9 8 8 7 7 8 8 8 7 7 6 5 4 3 3 2 3 4 8 11 11 12 12 11 10 9 9 9
10 8 10 11 11 10 13 11 11 12 14 17 12 18 14 11 11 9 8 8 8 8 7 7 7 7 7 6 5 3 3 3 3 3 8 8 9 10 10 10 10 10 10 9
11 11 11 11 11 9 12 10 11 12 14 14 15 16 15 12 12 11 9 9 8 7 7 7 7 7 7 6 6 4 3 3 4 4 5 7 7 5 8 9 10 11 11 11
10 9 10 10 9 9 9 10 11 12 13 18 15 15 16 13 12 10 9 8 8 8 8 9 8 7 8 7 6 6 5 5 5 6 6 8 8 7 9 11 11 11 12 12
11 11 10 9 11 10 10 12 17 19 18 19 14 15 14 11 10 10 9 9 8 8 9 9 9 9 9 8 7 7 7 7 6 7 7 8 7 8 10 11 12 13 14 14
14 15 11 9 10 12 12 12 16 21 20 18 15 17 14 10 9 9 8 8 8 8 8 9 9 9 9 8 8 8 8 7 7 8 8 8 8 9 10 11 11 12 12 13
14 14 9 9 9 9 12 13 11 14 17 18 16 13 11 9 9 8 9 8 9 9 9 9 9 9 9 9 9 8 8 8 8 9 9 9 9 10 11 11 11 11 12 13
11 14 11 10 9 9 11 9 15 15 21 21 17 17 15 12 10 9 9 9 9 9 9 10 10 9 9 9 9 9 8 8 8 8 8 8 9 10 10 11 11 12 13 15
10 12 14 12 13 12 12 13 12 12 14 19 19 17 11 10 10 10 9 9 9 10 10 10 10 10 10 9 9 9 9 8 8 9 9 10 11 11 12 12 13 14 15 16
10 12 15 14 11 10 11 12 11 15 17 15 17 15 10 10 10 10 10 9 10 10 10 10 10 10 10 10 10 9 9 9 9 9 9 11 11 12 14 14 15 15 16 16
11 14 17 16 13 12 13 12 11 11 13 17 18 16 11 10 11 11 11 11 11 11 11 11 11 11 11 10 10 9 9 9 9 9 10 11 12 13 14 15 16 16 16 17
10 15 15 18 16 13 15 13 12 12 16 15 16 14 12 10 10 12 11 11 11 11 11 11 11 11 10 10 10 10 10 9 9 9 10 11 12 13 14 15 16 17 17 17
11 15 14 14 14 15 15 15 14 14 14 17 15 14 11 10 10 9 10 10 10 10 10 10 10 11 10 10 10 10 10 10 10 10 11 12 13 14 15 16 17 17 17 17
11 15 14 15 13 14 15 14 13 13 13 13 13 14 9 8 8 9 8 8 10 10 9 10 10 10 10 10 10 10 10 10 11 11 12 13 14 14 15 16 16 17 18 18
13 13 15 17 14 14 17 14 13 12 11 11 14 11 9 10 9 9 9 8 8 8 8 8 9 9 10 10 10 11 10 11 11 13 13 14 14 15 16 16 17 18 18 18
12 13 14 17 17 22 16 11 10 12 11 10 11 13 12 12 11 8 9 10 9 8 8 8 9 9 9 9 10 11 12 12 13 14 14 14 15 15 17 17 18 18 18 18
9 12 16 18 19 16 15 13 12 12 14 12 13 12 12 12 11 9 10 10 10 10 10 10 11 11 11 11 11 12 13 13 14 14 15 15 15 17 18 18 18 18 19 19
10 11 14 16 19 20 15 13 10 9 16 13 11 11 12 13 15 12 11 10 10 10 10 11 11 12 13 13 13 13 13 13 14 14 14 15 15 16 17 18 18 18 18 17
14 13 15 15 17 15 12 11 10 15 14 11 11 12 12 13 11 10 10 10 10 10 10 11 13 13 13 14 13 14 14 14 13 13 15 15 15 16 17 17 17 17 16 17
14 15 15 14 17 18 10 10 13 10 10 10 10 10 10 9 9 10 10 10 10 10 10 11 12 12 13 13 13 13 14 13 13 15 15 16 16 15 16 16 16 16 17 17
17 12 14 13 13 11 10 12 10 8 10 10 10 9 9 10 9 9 10 10 11 11 11 12 12 12 12 13 13 14 12 13 14 16 17 18 17 16 15 16 16 16 17 17
13 11 14 13 12 10 11 10 9 9 9 9 9 9 9 10 10 10 10 11 11 11 11 13 13 14 13 14 13 13 14 14 14 14 15 15 15 15 15 14 14 15 16 16
13 12 15 14 12 12 12 10 10 9 9 9 9 10 10 11 11 11 11 11 11 11 12 14 15 14 14 14 15 15 14 15 15 15 15 15 14 14 14 14 14 14 14 13
12 13 14 16 12 12 12 11 10 10 10 10 10 10 10 10 11 11 11 11 11 12 13 14 15 15 14 14 15 16 15 15 16 16 15 14 14 15 15 15 15 12 12 11